星链-4715 (STARLINK-4715 )

导读

STARLINK-4715是美国航天企业SpaceX星链(Starlink)项目中的一颗卫星,于2022年9月11日发射升空,属于星链低轨互联网卫星星座的组成部分。它旨在为全球提供高速低延迟互联网服务,尤其覆盖偏远与网络基础设施薄弱地区,加入星链后推进了星座全球服务覆盖能力的构建。

基本信息
目录编号:
53801
目录名称:
STARLINK-4715
国际标识:
2022-111AE
轨道中心:
EARTH
卫星名称:
星链-4715
卫星全名:
星链-4715 (STARLINK-4715 )
卫星状态:
在轨 (已飞行1375 天)
发射日期:
2022-09-11 UTC
国别 :
美国 (US)
星等 :
--
轨道信息
数据来源 国际轨道数据 AOE轨道数据
星历时间 2026-06-17T01:50:04+0800
14小时前
查看轨道信息
2026-06-17T02:00:00+0800
14小时前
查看轨道信息
半长轴 6917.912km 6917.852km
偏心率 0.0001201 0.0001455
轨道倾角 53.159° 53.156°
近地点辐角 85.035° 68.677°
升交点赤经 179.109° 179.080°
平近点角 275.078° 328.927°
近地点 538.944km 538.708km
远地点 540.606km 540.722km
周期 95.438分钟 95.437分钟
每日圈数 15.088297 15.088496
详细信息
固有亮度:
5
最大亮度:
2.5
卫星平台:
Starlink v1.5
覆盖范围:
全球
运营商:
太空探索技术公司
运营商所在国:
美国
制造商(研发单位):
太空探索技术公司
制造商所在国:
美国
使用方式:
暂无
卫星简介
星链(Starlink)计划是由太空探索技术公司(SpaceX)提出的一个巨型低轨卫星互联网星座项目,计划在2019年至2024年间在太空搭建由约1.2万颗卫星组成的“星链”网络,其中1584颗将部署在地球上空550千米处的近地轨道,并从2020年开始工作。该卫星仍在工作。
2D轨道图
3D轨道图
轨道高度分析图
轨道倾角分析图
轨道综合分析图
查看轨道综合分析图